Location: *
(58.7167°N, 26.1833°E)
Time: 01:37:47
(UTC+00:00)

Meteor 1-5 Rocket - Pass Details

Date: 25 August 2019
Orbit: 789 x 915 km, 81.2° (Epoch: 23 October)

Event Time Altitude Azimuth Distance (km) Brightness Sun altitude
Rises 18:11:30 0° 174° (S) 3,441 7.0 -4.9°
Reaches altitude 10° 18:14:01 10° 169° (S) 2,488 6.3 -5.2°
Maximum altitude 18:19:24 49° 96° (E) 1,069 4.4 -5.8°
Drops below altitude 10° 18:24:40 10° 23° (NNE) 2,425 6.7 -6.4°
Sets 18:27:06 0° 18° (NNE) 3,346 7.5 -6.6°
